Temp
-9 -9 -9 -9 -10 -9 -9 -9 -9 -9 -10 -9 -9 -10 -10 -9 -10 -10 -10 -10 -10 -10 -10 -10 -10 -10 -10 -9 -9 -9 -10 -10 -10 -10 -10 -10 -10 -10 -10 -10 -10 -9 -10 -10 -10 -10 -10
-9 -9 -9 -10 -10 -10 -10 -10 -10 -10 -10 -10 -10 -10 -10 -10 -10 -10 -10 -10 -10 -10 -10 -9 -9 -10 -10 -9 -10 -10 -10 -10 -10 -10 -10 -11 -11 -11 -10 -10 -10 -10 -10 -10 -9 -9 -10
-10 -10 -10 -10 -10 -10 -10 -10 -10 -10 -10 -10 -10 -10 -10 -10 -10 -10 -10 -10 -10 -10 -10 -10 -10 -10 -10 -10 -10 -10 -10 -10 -10 -10 -10 -10 -11 -11 -11 -11 -11 -10 -10 -10 -10 -10 -10
-10 -10 -10 -10 -11 -11 -11 -10 -10 -10 -10 -10 -10 -10 -10 -10 -10 -10 -10 -10 -10 -10 -10 -10 -10 -10 -9 -9 -9 -9 -10 -10 -10 -10 -10 -10 -11 -11 -10 -10 -10 -10 -10 -10 -10 -10 -10
-10 -10 -11 -11 -11 -11 -11 -11 -11 -11 -11 -10 -10 -10 -10 -10 -10 -10 -10 -10 -10 -10 -10 -10 -10 -10 -9 -9 -9 -9 -9 -10 -10 -10 -10 -10 -10 -10 -10 -11 -11 -11 -10 -10 -11 -11 -11
-11 -11 -12 -12 -12 -11 -11 -11 -11 -11 -11 -11 -11 -11 -10 -10 -10 -10 -11 -11 -10 -10 -10 -10 -10 -10 -9 -9 -9 -9 -9 -10 -9 -9 -10 -10 -10 -11 -11 -12 -11 -13 -13 -13 -12 -12 -11
-12 -12 -12 -12 -12 -12 -12 -12 -11 -11 -11 -11 -11 -10 -10 -10 -10 -11 -11 -11 -11 -10 -10 -10 -10 -10 -9 -10 -10 -9 -9 -10 -11 -11 -11 -12 -12 -12 -13 -13 -13 -14 -14 -13 -13 -14 -13
-13 -13 -13 -12 -12 -12 -12 -12 -11 -11 -11 -11 -11 -11 -11 -10 -10 -11 -11 -11 -11 -10 -10 -10 -9 -9 -9 -9 -10 -10 -10 -10 -11 -11 -12 -13 -13 -14 -14 -14 -15 -15 -15 -14 -15 -15 -15
-13 -13 -13 -13 -12 -12 -12 -12 -11 -11 -11 -11 -11 -11 -11 -11 -11 -11 -11 -11 -10 -10 -10 -10 -9 -9 -10 -11 -11 -10 -11 -12 -12 -13 -13 -14 -16 -16 -17 -17 -17 -17 -17 -16 -16 -16 -16
-13 -13 -13 -13 -13 -12 -12 -12 -12 -12 -12 -12 -11 -11 -11 -11 -11 -11 -11 -10 -10 -10 -10 -10 -10 -10 -11 -11 -12 -12 -12 -12 -13 -14 -16 -18 -19 -20 -21 -21 -21 -21 -22 -21 -20 -19 -19
-13 -13 -13 -13 -13 -12 -12 -12 -12 -12 -12 -12 -12 -12 -11 -11 -10 -11 -10 -10 -10 -10 -11 -11 -12 -11 -11 -12 -12 -14 -15 -16 -18 -19 -20 -22 -22 -24 -24 -24 -24 -23 -23 -23 -23 -23 -23
-14 -13 -13 -13 -13 -13 -13 -13 -13 -12 -12 -12 -12 -12 -11 -11 -11 -11 -11 -11 -10 -11 -11 -12 -12 -13 -13 -14 -17 -19 -20 -21 -22 -24 -25 -25 -25 -26 -26 -27 -27 -26 -26 -25 -24 -25 -25
-14 -14 -14 -13 -13 -13 -13 -13 -13 -12 -12 -12 -11 -11 -11 -11 -11 -11 -11 -11 -12 -12 -13 -13 -13 -14 -15 -17 -19 -22 -23 -24 -25 -26 -27 -27 -28 -29 -29 -29 -30 -29 -28 -27 -26 -26 -25
-14 -14 -14 -13 -13 -13 -13 -13 -13 -12 -12 -12 -12 -12 -11 -12 -11 -11 -12 -12 -12 -13 -13 -14 -15 -17 -19 -20 -22 -24 -26 -27 -29 -29 -30 -29 -29 -30 -31 -31 -30 -30 -30 -30 -29 -28 -27
-14 -14 -13 -13 -13 -13 -13 -13 -13 -12 -12 -12 -12 -12 -12 -12 -12 -12 -12 -13 -14 -13 -14 -14 -16 -18 -21 -23 -24 -26 -28 -30 -31 -32 -32 -31 -30 -31 -32 -32 -31 -31 -31 -31 -30 -29 -28
-14 -14 -14 -14 -13 -13 -13 -13 -13 -12 -12 -13 -13 -12 -12 -12 -12 -13 -13 -14 -14 -14 -16 -18 -20 -21 -23 -24 -26 -29 -30 -31 -31 -32 -32 -32 -31 -31 -32 -32 -32 -32 -31 -31 -30 -30 -29
-14 -14 -14 -14 -14 -13 -13 -13 -13 -13 -13 -13 -13 -12 -13 -13 -13 -13 -14 -14 -14 -16 -18 -21 -22 -23 -24 -26 -29 -31 -32 -32 -32 -32 -32 -32 -32 -32 -32 -32 -32 -32 -32 -32 -31 -31 -31
-14 -14 -14 -14 -14 -13 -13 -13 -13 -14 -13 -13 -13 -13 -13 -14 -14 -14 -15 -15 -16 -18 -21 -22 -23 -24 -26 -27 -30 -32 -33 -32 -33 -33 -32 -32 -32 -32 -32 -32 -32 -32 -32 -31 -31 -31 -31
-14 -14 -14 -14 -14 -13 -13 -13 -13 -14 -14 -13 -13 -13 -14 -14 -15 -15 -15 -16 -18 -21 -23 -23 -24 -25 -27 -29 -30 -32 -33 -33 -33 -33 -33 -32 -32 -32 -32 -32 -32 -32 -32 -31 -31 -31 -31
-14 -14 -14 -14 -14 -14 -13 -13 -14 -14 -14 -13 -14 -14 -14 -14 -15 -16 -17 -18 -21 -23 -24 -25 -26 -26 -27 -29 -31 -32 -33 -33 -33 -33 -33 -32 -32 -32 -32 -32 -32 -32 -31 -31 -32 -32 -31
-14 -14 -14 -14 -14 -14 -14 -14 -14 -14 -14 -14 -15 -15 -15 -16 -16 -16 -18 -21 -23 -23 -24 -25 -27 -27 -28 -28 -30 -32 -32 -33 -33 -33 -33 -32 -32 -32 -32 -32 -32 -32 -31 -31 -31 -31 -31
-14 -14 -14 -14 -14 -14 -14 -14 -14 -14 -14 -15 -15 -15 -16 -16 -17 -18 -20 -22 -24 -24 -25 -26 -27 -28 -28 -29 -30 -31 -32 -33 -33 -33 -33 -33 -33 -33 -32 -32 -32 -32 -32 -32 -31 -31 -31
-15 -14 -14 -14 -14 -14 -14 -14 -15 -14 -15 -16 -16 -16 -16 -17 -18 -20 -22 -23 -24 -25 -25 -26 -27 -28 -29 -29 -30 -31 -32 -33 -33 -33 -33 -33 -33 -33 -33 -33 -32 -32 -32 -32 -32 -32 -32
-15 -15 -14 -14 -14 -14 -14 -14 -15 -15 -16 -16 -16 -16 -17 -18 -20 -22 -23 -24 -25 -26 -26 -27 -27 -29 -29 -30 -30 -31 -32 -33 -33 -33 -33 -33 -33 -33 -33 -33 -32 -32 -32 -32 -32 -32 -32
-15 -15 -14 -15 -14 -15 -15 -15 -15 -15 -16 -16 -17 -17 -18 -19 -21 -23 -24 -26 -26 -26 -27 -28 -28 -28 -29 -30 -31 -31 -32 -33 -33 -34 -34 -34 -34 -33 -33 -33 -33 -33 -33 -33 -32 -32 -32
-15 -15 -15 -15 -15 -15 -15 -15 -15 -16 -17 -17 -17 -18 -19 -20 -22 -24 -25 -26 -27 -27 -28 -28 -29 -29 -29 -30 -31 -32 -32 -32 -33 -34 -34 -33 -34 -34 -34 -34 -33 -33 -33 -33 -33 -33 -32
-15 -15 -15 -15 -15 -15 -15 -16 -16 -17 -17 -17 -18 -19 -20 -21 -23 -24 -26 -26 -27 -27 -28 -29 -30 -30 -30 -31 -31 -32 -32 -32 -33 -33 -33 -34 -34 -34 -34 -34 -34 -34 -34 -33 -33 -33 -33
-15 -15 -15 -15 -15 -16 -16 -16 -17 -18 -18 -18 -19 -20 -21 -22 -24 -25 -26 -27 -27 -28 -29 -29 -30 -30 -30 -31 -31 -32 -32 -33 -33 -33 -33 -34 -34 -34 -34 -34 -34 -35 -34 -34 -34 -34 -33
-15 -15 -15 -15 -16 -16 -16 -17 -18 -18 -18 -19 -20 -21 -22 -23 -25 -26 -26 -27 -28 -29 -29 -30 -30 -30 -31 -31 -32 -32 -33 -33 -33 -34 -34 -34 -34 -35 -35 -35 -35 -35 -35 -35 -35 -35 -34
Height
5807 5806 5805 5804 5803 5801 5799 5797 5795 5793 5791 5788 5785 5781 5778 5774 5771 5769 5767 5764 5761 5758 5755 5753 5750 5749 5746 5743 5742 5739 5736 5734 5732 5729 5725 5722 5719 5714 5713 5712 5710 5707 5709 5706 5705 5704 5704
5803 5802 5802 5801 5799 5797 5796 5794 5791 5789 5787 5784 5781 5778 5775 5770 5767 5764 5761 5757 5754 5752 5749 5747 5744 5741 5739 5736 5734 5731 5728 5725 5723 5719 5716 5713 5709 5704 5700 5699 5698 5696 5695 5695 5693 5693 5693
5799 5798 5798 5797 5796 5794 5792 5790 5788 5786 5782 5779 5776 5774 5770 5767 5762 5758 5755 5752 5749 5746 5742 5739 5736 5733 5730 5729 5725 5723 5719 5715 5712 5708 5705 5700 5696 5692 5688 5687 5685 5685 5680 5680 5680 5680 5681
5796 5795 5794 5793 5791 5790 5788 5786 5784 5781 5778 5775 5772 5768 5765 5762 5758 5753 5750 5746 5743 5740 5736 5732 5729 5726 5723 5719 5716 5713 5708 5703 5700 5695 5690 5685 5681 5677 5673 5670 5668 5666 5664 5665 5664 5663 5666
5792 5792 5790 5789 5788 5786 5784 5782 5779 5776 5773 5770 5767 5763 5759 5756 5752 5747 5743 5739 5736 5733 5729 5725 5721 5718 5714 5710 5705 5701 5697 5690 5685 5680 5675 5670 5664 5659 5654 5650 5646 5643 5646 5645 5644 5644 5645
5788 5787 5787 5786 5784 5782 5779 5777 5774 5771 5768 5764 5760 5757 5753 5749 5745 5741 5736 5732 5729 5725 5721 5717 5713 5709 5703 5698 5693 5687 5682 5676 5668 5663 5657 5650 5643 5638 5634 5629 5627 5624 5621 5621 5620 5622 5625
5785 5784 5783 5781 5779 5777 5775 5772 5769 5766 5762 5758 5753 5750 5746 5742 5737 5733 5730 5725 5722 5718 5713 5708 5704 5697 5691 5684 5679 5673 5664 5656 5651 5644 5636 5629 5623 5617 5612 5604 5603 5597 5596 5597 5599 5600 5601
5781 5780 5778 5777 5775 5772 5769 5766 5763 5760 5755 5750 5747 5742 5738 5734 5729 5724 5721 5716 5711 5707 5700 5695 5690 5682 5675 5667 5659 5651 5645 5636 5627 5618 5609 5602 5594 5588 5583 5577 5572 5569 5568 5572 5573 5575 5574
5776 5775 5774 5771 5769 5766 5764 5760 5757 5753 5748 5744 5739 5735 5730 5726 5721 5716 5710 5705 5700 5693 5688 5682 5674 5665 5655 5645 5635 5629 5621 5610 5601 5591 5582 5572 5564 5556 5551 5546 5540 5541 5538 5540 5539 5545 5546
5771 5770 5768 5766 5763 5760 5757 5754 5751 5746 5742 5737 5732 5727 5722 5718 5714 5708 5702 5696 5689 5681 5672 5664 5655 5646 5635 5620 5610 5597 5589 5580 5568 5558 5549 5540 5531 5524 5520 5514 5508 5513 5512 5511 5513 5515 5520
5766 5765 5763 5761 5758 5755 5751 5748 5743 5739 5735 5729 5725 5720 5715 5708 5703 5697 5690 5682 5674 5666 5654 5646 5635 5622 5611 5600 5582 5568 5554 5544 5533 5524 5518 5508 5502 5497 5492 5489 5485 5487 5489 5491 5495 5499 5500
5761 5759 5757 5755 5753 5749 5746 5742 5738 5732 5727 5722 5716 5711 5705 5698 5691 5684 5676 5668 5659 5651 5637 5626 5613 5602 5589 5571 5554 5541 5527 5514 5507 5501 5491 5485 5481 5478 5473 5468 5465 5466 5468 5473 5478 5480 5477
5756 5754 5752 5750 5746 5743 5740 5735 5730 5725 5719 5713 5707 5701 5694 5688 5681 5672 5663 5654 5645 5632 5620 5608 5594 5577 5561 5547 5531 5514 5503 5494 5486 5480 5477 5474 5470 5464 5459 5457 5455 5454 5452 5454 5459 5460 5466
5750 5749 5747 5744 5741 5737 5732 5728 5723 5717 5711 5704 5698 5691 5685 5677 5669 5660 5650 5641 5630 5617 5602 5585 5569 5551 5535 5521 5515 5500 5488 5477 5470 5466 5462 5460 5462 5457 5453 5449 5447 5447 5446 5444 5443 5450 5453
5744 5744 5742 5739 5734 5730 5726 5720 5715 5709 5703 5697 5690 5683 5676 5668 5658 5648 5638 5625 5611 5598 5583 5567 5549 5534 5521 5506 5491 5482 5473 5468 5463 5459 5456 5452 5453 5452 5446 5443 5442 5441 5439 5438 5437 5439 5441
5739 5738 5735 5732 5728 5725 5720 5713 5708 5701 5694 5688 5681 5673 5665 5655 5645 5633 5621 5608 5595 5579 5561 5544 5530 5518 5505 5495 5484 5473 5467 5462 5459 5455 5451 5449 5444 5445 5442 5439 5437 5435 5435 5435 5433 5432 5433
5733 5731 5729 5726 5722 5717 5712 5706 5699 5692 5686 5679 5671 5662 5652 5642 5632 5619 5606 5593 5575 5558 5544 5532 5518 5506 5494 5484 5474 5468 5463 5460 5455 5452 5448 5444 5442 5441 5436 5434 5432 5431 5430 5429 5427 5426 5423
5726 5724 5722 5719 5715 5710 5704 5698 5692 5685 5678 5670 5661 5652 5642 5630 5619 5604 5590 5576 5559 5545 5531 5520 5509 5497 5486 5476 5470 5464 5459 5454 5451 5446 5443 5439 5437 5435 5432 5431 5428 5426 5425 5424 5422 5422 5417
5720 5719 5716 5712 5707 5702 5697 5689 5683 5676 5669 5660 5651 5641 5629 5616 5602 5592 5575 5561 5549 5534 5522 5511 5501 5490 5480 5471 5463 5458 5455 5451 5447 5441 5439 5436 5432 5430 5430 5428 5425 5422 5421 5418 5416 5415 5413
5714 5712 5709 5705 5701 5696 5689 5682 5675 5667 5659 5651 5639 5628 5617 5605 5593 5579 5565 5552 5537 5525 5516 5504 5495 5484 5476 5468 5459 5452 5448 5445 5442 5438 5435 5432 5430 5428 5426 5424 5421 5418 5416 5414 5412 5410 5407
5708 5706 5703 5698 5694 5688 5681 5674 5666 5658 5649 5639 5630 5617 5605 5594 5581 5570 5557 5543 5530 5525 5512 5499 5487 5478 5470 5462 5455 5448 5443 5440 5436 5432 5430 5429 5426 5424 5422 5420 5418 5416 5413 5410 5407 5404 5400
5701 5699 5696 5691 5686 5680 5674 5666 5657 5649 5639 5630 5619 5609 5597 5585 5572 5559 5547 5537 5527 5516 5507 5496 5485 5474 5466 5457 5448 5442 5438 5433 5432 5429 5427 5425 5423 5421 5419 5417 5415 5412 5410 5407 5403 5398 5395
5694 5692 5688 5683 5678 5672 5665 5658 5649 5640 5630 5620 5609 5600 5588 5574 5562 5551 5540 5529 5520 5510 5500 5492 5481 5472 5464 5456 5446 5438 5433 5430 5427 5425 5423 5422 5419 5416 5415 5413 5410 5410 5406 5403 5401 5397 5394
5687 5684 5679 5675 5670 5663 5657 5649 5639 5630 5621 5611 5601 5590 5578 5565 5554 5541 5531 5522 5514 5506 5498 5488 5477 5467 5460 5452 5445 5437 5430 5426 5423 5421 5419 5417 5415 5412 5410 5408 5406 5404 5401 5399 5397 5395 5392
5680 5676 5672 5667 5661 5655 5648 5639 5629 5621 5612 5601 5591 5581 5569 5559 5547 5534 5523 5515 5507 5499 5491 5481 5475 5468 5458 5450 5443 5435 5429 5424 5419 5415 5412 5411 5409 5407 5405 5402 5400 5398 5396 5394 5392 5391 5389
5673 5669 5664 5659 5653 5646 5638 5629 5621 5612 5603 5593 5584 5572 5562 5552 5541 5531 5522 5515 5505 5495 5487 5479 5472 5464 5456 5447 5440 5433 5427 5421 5417 5412 5406 5404 5402 5401 5398 5396 5393 5391 5389 5387 5386 5384 5382
5665 5661 5656 5651 5644 5636 5629 5621 5612 5604 5594 5585 5575 5565 5555 5546 5536 5527 5520 5512 5504 5494 5485 5477 5469 5462 5454 5446 5440 5433 5427 5421 5415 5410 5405 5401 5397 5394 5390 5388 5386 5383 5381 5380 5379 5380 5374
5657 5653 5648 5641 5635 5627 5620 5612 5603 5595 5585 5577 5566 5557 5549 5539 5531 5523 5516 5507 5498 5490 5483 5475 5469 5460 5454 5447 5439 5432 5425 5420 5414 5409 5403 5399 5395 5391 5387 5384 5382 5377 5375 5373 5371 5367 5366
5649 5645 5639 5632 5626 5619 5611 5602 5595 5586 5577 5567 5559 5550 5542 5535 5525 5517 5509 5501 5493 5486 5478 5471 5464 5458 5451 5444 5436 5430 5424 5418 5412 5407 5402 5397 5393 5388 5385 5380 5377 5373 5369 5366 5363 5360 5358
Wind_Speed
14 14 14 16 15 16 18 20 22 24 25 26 27 28 29 32 29 28 26 24 24 25 25 26 25 25 26 30 30 32 33 32 29 29 32 35 37 40 41 40 41 43 38 38 37 38 37
17 16 16 17 18 19 19 21 22 23 25 27 28 29 30 30 31 31 31 30 30 30 30 31 31 31 32 34 32 32 33 34 36 39 41 42 44 47 49 48 47 48 48 47 48 45 42
19 17 18 20 21 20 21 23 24 25 26 28 29 32 30 30 33 34 32 32 33 34 35 34 35 35 36 37 39 41 42 44 44 44 46 49 52 55 57 57 57 56 58 56 55 55 52
21 21 20 20 20 20 22 25 25 26 27 29 31 31 32 33 32 34 34 35 35 34 34 36 36 37 39 42 44 45 48 50 51 52 53 55 55 56 59 62 64 66 67 64 63 60 58
21 21 19 18 20 22 24 26 26 27 28 30 31 32 32 33 34 36 36 34 33 33 36 36 37 42 46 49 51 53 55 56 57 59 61 66 68 68 69 69 69 69 68 69 66 63 62
19 19 20 21 22 23 25 26 28 29 31 32 31 32 33 35 36 37 35 34 35 36 38 39 42 48 50 53 53 57 60 64 69 69 70 69 71 73 72 69 76 68 72 70 70 73 71
20 20 21 22 24 24 26 27 30 31 30 32 33 36 37 36 39 36 36 37 37 40 40 44 48 53 60 61 65 73 70 65 68 72 73 74 75 77 77 79 78 77 77 79 76 71 70
19 19 21 23 24 26 27 30 32 32 33 34 36 37 37 38 40 39 40 41 43 46 50 52 56 58 65 71 69 69 74 77 81 83 82 81 81 80 81 81 81 80 81 81 76 75 75
19 21 23 24 26 28 29 31 33 33 35 36 36 37 39 40 42 43 45 47 50 54 57 57 63 68 71 73 78 82 84 84 84 84 84 84 80 83 80 80 81 80 81 81 84 81 82
21 23 25 26 28 29 29 30 33 33 33 35 38 39 41 43 45 46 49 52 56 59 63 69 68 75 79 84 86 88 91 88 89 87 81 76 75 75 76 76 78 77 73 75 78 80 80
22 24 25 27 28 28 30 31 33 34 35 37 39 40 42 46 48 52 55 58 62 66 72 69 78 83 86 88 92 86 85 81 76 74 71 72 70 68 66 65 69 70 69 69 70 71 69
23 25 26 27 27 28 29 31 32 35 38 40 41 45 47 50 52 57 61 63 67 71 75 79 84 85 88 86 79 72 68 67 63 59 60 60 61 60 59 54 53 54 57 59 58 57 62
23 26 26 26 27 30 32 33 35 38 42 44 48 50 51 53 58 62 66 69 72 75 79 82 84 87 87 79 72 65 62 58 53 50 46 44 41 37 34 36 32 35 38 41 42 46 50
24 26 26 27 29 31 35 37 39 42 45 47 50 52 55 58 62 65 68 70 74 78 82 85 84 82 74 73 63 56 50 45 41 36 33 33 26 22 21 22 24 20 18 15 18 17 29
25 25 26 28 30 37 37 35 39 43 46 49 52 54 57 60 64 67 71 74 78 82 86 86 85 77 68 62 58 50 41 34 30 22 20 27 22 15 19 19 21 17 17 17 20 19 30
28 26 27 28 30 37 37 38 41 45 49 51 52 56 59 63 67 71 74 77 80 85 82 78 72 67 63 57 48 40 33 28 24 19 21 24 27 18 18 16 18 18 14 11 12 12 16
20 24 29 32 34 38 40 41 45 47 48 52 55 60 63 68 70 73 76 78 82 82 77 69 64 60 56 50 40 25 24 24 24 19 19 21 22 18 17 13 13 14 14 12 16 20 20
23 28 30 32 36 40 42 45 46 47 51 54 59 62 66 68 71 76 77 82 80 74 65 60 58 53 50 45 37 23 22 26 29 28 19 22 20 18 12 13 15 15 15 16 18 21 29
26 28 30 33 37 40 43 47 46 50 54 57 63 66 66 71 73 76 77 77 72 65 58 55 52 49 46 40 36 27 23 27 28 28 20 20 20 17 17 12 8 10 14 16 18 18 19
27 30 31 34 37 40 45 48 50 54 58 62 63 66 70 73 74 74 73 69 62 57 52 48 46 45 42 38 32 31 29 26 21 24 19 18 19 16 15 13 16 18 15 14 16 18 22
28 29 31 34 39 43 46 49 53 57 60 61 62 65 70 70 69 72 68 62 56 49 47 45 43 44 43 39 32 27 24 21 20 16 14 12 17 16 14 15 16 14 11 10 14 20 19
27 28 32 35 40 42 46 50 54 57 59 60 63 67 69 67 69 67 62 55 50 46 43 42 41 42 41 38 34 28 23 21 11 9 9 10 12 15 15 15 14 14 15 17 18 20 17
27 28 33 39 42 45 48 51 55 58 59 60 63 64 66 65 65 60 56 52 47 43 43 43 42 40 39 36 33 28 23 18 15 12 14 13 20 25 22 21 19 16 17 17 16 14 12
29 32 37 41 43 46 50 53 57 58 58 60 62 63 63 63 61 54 51 48 45 42 41 42 43 41 40 37 32 28 23 19 17 17 18 22 22 24 23 23 24 22 24 23 21 18 16
32 37 40 41 45 48 52 55 57 58 58 60 61 61 60 59 55 51 49 46 45 44 43 42 41 40 37 34 31 28 25 20 19 20 22 23 25 25 23 22 21 22 22 23 22 19 19
35 37 39 42 46 50 53 55 56 56 57 58 59 58 58 57 52 47 43 42 43 43 42 41 39 38 37 34 31 27 25 24 20 19 23 22 20 22 23 23 24 24 24 24 23 24 25
35 36 41 45 48 50 53 55 53 53 56 57 56 56 55 52 48 45 43 41 41 41 40 38 36 35 36 33 29 27 25 23 23 22 18 15 18 20 22 24 27 28 29 28 29 28 28
36 40 43 45 47 51 54 54 51 53 55 55 55 54 51 49 45 43 43 42 41 40 38 36 34 34 32 32 30 28 26 25 23 23 22 21 19 16 15 15 15 19 21 25 28 31 33
37 40 43 46 49 51 54 50 50 52 53 53 52 51 48 45 43 42 42 41 40 39 37 35 34 32 33 34 32 29 28 28 27 26 25 25 25 23 21 19 18 17 16 17 18 20 22
Wind_Direction
277 285 289 293 294 295 298 305 311 317 324 330 330 330 326 326 328 327 324 321 319 316 314 311 305 297 293 295 301 301 302 300 291 282 281 277 279 279 280 276 272 275 275 273 270 269 269
269 280 291 293 292 292 295 299 305 311 316 323 325 325 323 321 322 320 319 319 316 313 310 308 306 303 299 297 296 298 298 296 290 288 284 279 278 278 277 275 273 274 271 271 271 268 265
270 278 287 291 291 291 296 300 305 308 313 318 320 320 319 320 318 317 317 316 315 314 311 307 303 301 300 300 297 299 297 292 289 286 283 280 280 280 280 278 276 275 273 269 268 266 267
275 282 286 291 294 295 299 301 303 306 311 316 319 319 318 319 318 315 315 315 312 308 306 303 302 300 300 300 299 298 297 295 290 286 282 281 278 278 278 279 279 278 276 275 272 268 267
280 283 289 293 295 297 301 302 305 309 313 316 317 316 318 319 320 318 317 315 312 310 308 304 301 302 300 298 297 295 295 294 291 289 287 286 284 282 281 281 277 274 273 271 268 267 265
286 289 293 294 296 299 302 306 309 313 313 313 316 317 318 318 322 322 318 314 310 308 306 303 299 301 300 300 297 295 293 293 293 292 289 285 284 283 280 277 278 274 270 266 262 264 263
293 294 294 298 301 303 306 310 312 312 313 316 320 318 317 318 320 320 316 312 310 308 304 302 302 299 300 300 299 301 298 294 291 290 288 286 283 281 279 277 274 271 268 268 267 265 259
295 296 297 299 302 305 307 312 314 315 317 317 316 316 316 318 320 319 316 313 312 310 307 305 305 303 303 302 302 300 299 297 295 294 293 288 285 281 279 276 273 271 270 269 264 263 260
292 294 297 301 304 308 309 311 312 313 315 316 316 317 318 321 320 320 318 313 311 311 310 307 305 307 310 310 307 304 300 299 297 294 291 288 282 280 274 269 265 263 260 259 258 253 252
290 295 300 305 309 310 312 314 314 315 317 317 318 320 322 322 321 319 315 314 314 312 313 312 313 314 314 311 310 308 305 303 300 297 290 281 274 268 264 263 261 257 256 255 254 251 250
291 297 303 305 308 312 314 315 316 317 317 316 318 321 321 321 321 321 319 318 318 318 319 318 319 317 315 314 313 312 309 303 298 292 287 281 279 278 276 272 269 266 265 263 261 259 260
292 299 302 307 311 313 313 316 319 319 318 319 320 320 319 319 320 321 321 320 319 320 322 322 320 320 319 321 315 310 304 300 294 290 285 282 281 280 279 277 276 273 268 265 263 260 255
291 294 302 310 314 315 314 314 317 319 321 321 321 319 320 321 323 323 322 321 323 325 324 324 324 325 324 322 317 312 308 303 298 294 288 283 283 285 282 279 281 283 283 279 266 259 262
281 292 307 311 317 320 318 313 315 322 322 321 321 322 321 323 323 323 323 324 326 327 328 328 330 329 326 324 319 315 311 307 306 302 299 295 290 292 290 296 289 277 282 287 268 236 222
278 293 305 308 317 318 318 318 322 325 323 322 322 323 325 325 325 325 326 329 331 330 331 333 332 331 328 324 324 322 318 317 314 310 305 308 306 311 313 296 291 279 283 275 274 255 227
282 286 300 308 315 324 323 325 326 323 324 325 326 327 327 327 327 329 332 334 332 334 336 336 335 333 330 330 327 323 323 324 326 323 310 310 312 324 308 292 284 281 288 268 256 252 235
293 293 297 308 316 323 323 325 326 326 327 327 328 328 329 329 330 333 335 335 337 339 340 338 337 334 332 332 332 331 335 339 335 322 316 311 312 325 309 299 286 269 269 268 264 258 259
286 294 301 311 321 323 322 321 324 325 327 329 329 329 330 331 335 336 337 339 341 342 341 339 337 335 337 335 333 322 329 335 341 331 319 316 315 322 318 298 273 273 282 277 272 267 265
286 297 303 314 321 319 321 322 324 325 327 329 329 330 333 335 338 337 341 342 341 343 342 340 337 339 342 338 330 326 316 318 322 327 318 317 317 327 319 315 310 293 307 291 285 278 284
294 298 307 318 319 320 322 321 323 325 327 329 330 333 335 336 338 340 342 343 345 345 342 339 341 344 346 342 333 328 321 311 316 317 313 312 308 313 310 306 316 317 318 312 300 288 284
297 303 310 314 318 321 321 324 326 328 329 330 334 336 336 337 340 341 344 345 347 345 344 345 346 347 350 349 341 329 323 323 317 308 305 314 311 314 311 306 304 303 304 304 318 303 279
299 305 311 315 322 321 321 326 329 330 331 334 335 337 336 339 340 342 345 348 347 349 350 351 351 349 352 351 347 342 333 327 321 302 311 310 304 315 306 305 296 292 294 308 324 334 267
300 308 313 317 320 320 322 327 330 332 333 335 335 335 336 340 341 344 347 348 350 350 354 356 354 353 352 355 352 344 335 324 310 287 288 293 292 307 308 302 304 303 301 312 320 334 345
296 307 314 317 318 319 322 326 329 331 332 334 335 334 338 341 342 346 348 351 349 351 354 356 359 356 353 353 356 354 343 327 304 293 275 283 290 296 302 300 298 291 293 298 302 307 311
297 303 310 315 315 316 321 326 329 330 331 333 333 336 339 340 344 347 350 349 346 351 354 358 359 359 354 352 354 358 357 345 326 308 293 285 284 289 293 294 293 288 293 292 291 290 292
300 305 312 314 316 317 321 326 328 329 331 332 333 337 339 342 346 348 351 346 347 348 352 355 355 358 358 358 356 358 360 358 347 327 317 311 295 287 288 293 291 288 289 288 287 282 283
301 306 311 312 316 319 323 325 327 327 330 331 335 338 339 342 345 346 348 345 347 349 353 352 355 357 1 359 358 359 -0 359 360 358 356 332 313 304 295 287 284 285 284 284 281 281 281
304 307 310 314 318 322 322 325 324 327 329 332 337 338 339 342 345 346 345 346 349 351 353 354 352 355 357 359 358 1 4 3 1 360 356 358 358 349 335 319 306 298 290 284 280 277 275
308 309 311 316 319 320 322 323 322 327 328 334 335 338 340 341 345 344 347 349 352 354 355 355 356 354 355 358 1 1 2 2 1 359 359 357 357 355 350 346 341 335 327 318 309 299 291